Weather in Garrisberg

United States     40°16′21″N   76°51′57″W
temp.,
°C
wind,
m/s
gust,
m/s
humid.,
%
clouds,
%
prec.,
mm/h
press.,
hPa
HPBL,
m
28 june, tue
tue2823:00+18nnw513590 0.0 1019394
02:00+14nnw236716 0.0 102042
05:00+13wnw22702 0.0 102011
08:00+16nw35705 0.0 1022242
11:00+20nnw34550 0.0 10231431
14:00+23n135093 0.0 10221659
17:00+25ssw12475 0.0 10211626
20:00+20sse227291 0.0 102225
29 june, wed
wed2923:00+16sw1273100 0.0 102311
02:00+14sw1280100 0.0 102311
05:00+13sw11840 0.0 102311
08:00+17s12730 0.0 1024166
11:00+23ssw35580 0.0 1023863
14:00+27sw35510 0.0 10221724
17:00+28wsw35503 0.0 10201739
20:00+23wsw22725 0.0 102115
30 june, thu
thu3023:00+18w11654 0.0 102211
02:00+17nw116843 0.0 102311
05:00+16nw127415 0.0 102310
08:00+19nnw23743 0.0 1023148
11:00+25wnw23610 0.0 1023818
14:00+28sw24501 0.0 10221952
17:00+29ssw33524 0.0 10201338
20:00+24s23734 0.0 102040
1 july, fri
fri123:00+20s11725 0.0 102111
02:00+18ese11745 0.0 102011
05:00+18e11754 0.0 101911
08:00+21ssw11754 0.0 1019140
11:00+27wsw236043 0.0 1018518
14:00+32ssw3648100 0.0 10161820
17:00+29ssw5960100 0.0 1014534
20:00+25ssw276939 0.0 1014131
2 july, sat
sat223:00+23sw257799 0.1 101598
02:00+22wsw2284100 0.1 101418
05:00+20w2286100 0.0 101525
08:00+23wnw1277100 0.1 1016133
11:00+25wnw1275100 0.1 1017416
14:00+24sw2285100 0.6 1017359
17:00+22ssw249084 0.2 1016211
20:00+23s228642 0.3 101743